Location: Gollag?dem
(16.8053°N, 80.8024°E)
Time: 00:06:03
(UTC+00:00)

X-37B - Visible Passes

Search period start: 21 January 2022 00:00
Search period end: 31 January 2022 00:00
Orbit: 334 x 337 km, 45.0° (Epoch: 11 January)

Date Brightness Start Highest point End Pass type
(mag) Time Alt. Az. Time Alt. Az. Time Alt. Az.
21 Jan 2.9 14:07:27 10° WSW 14:08:51 21° W 14:08:51 21° W visible
21 Jan 2.6 23:51:48 16° SSW 23:51:48 16° SSW 23:52:49 10° S visible
22 Jan 0.9 12:52:20 10° SSW 12:55:01 42° SE 12:57:43 10° ENE visible
23 Jan 1.9 13:12:52 10° WSW 13:15:24 30° NW 13:17:46 11° NNE visible
